Wind_Speed
5 6 5 9 7 3 2 0 4 5 5 3 1 4 6 4 3 2 3 4 4 5 6 8 9 13 18 17 14 28 33 35 37 36 39 43 43 44 46 46 47 48 48 47 47 47 47 48 48 47 47 47 47 47 48 48 48 49 49 48 47 45 44
15 23 18 3 10 5 2 1 4 3 4 4 0 0 3 3 2 2 3 6 4 3 4 7 10 11 14 15 10 16 27 32 34 36 42 45 46 47 46 46 47 48 49 49 48 48 48 49 51 50 49 48 48 48 48 48 48 50 50 49 48 47 46
17 21 16 5 4 6 5 3 5 1 2 2 2 0 2 1 2 3 4 8 5 3 4 7 12 11 10 12 11 13 22 28 31 34 40 45 46 45 44 44 45 46 48 50 50 50 49 49 51 52 50 48 48 48 48 48 48 48 49 48 48 48 48
14 11 6 4 2 1 2 6 5 1 3 2 1 2 2 1 2 3 3 5 5 4 4 5 9 11 10 11 11 12 19 28 34 34 37 42 42 42 42 44 45 47 48 50 52 52 52 51 50 50 50 49 48 49 48 48 48 47 48 48 47 48 49
10 5 3 7 8 6 6 6 5 3 1 1 1 2 3 2 3 3 3 4 5 6 5 3 5 7 11 12 8 8 16 30 39 39 39 41 41 42 44 44 46 48 49 50 52 53 52 51 50 50 50 50 49 49 49 48 47 47 48 48 47 47 49
5 7 11 14 13 10 6 4 4 5 4 3 3 3 3 3 1 2 3 3 6 7 3 7 11 11 8 12 9 4 9 27 41 42 42 44 43 43 45 46 48 49 49 49 50 51 50 49 49 50 50 50 48 48 48 48 47 48 48 48 47 46 48
7 12 16 17 15 12 9 7 5 5 4 3 3 3 3 2 2 3 1 2 7 7 7 11 11 19 18 6 10 8 7 22 43 46 45 48 47 46 46 45 47 49 49 49 49 49 49 49 49 50 50 51 49 47 46 47 47 48 48 49 48 46 46
8 10 11 12 10 8 8 7 6 6 6 6 4 3 3 2 1 3 1 2 7 4 11 14 13 23 27 19 10 6 4 10 31 42 45 48 48 48 48 45 46 47 46 47 48 48 49 48 48 49 49 50 50 47 46 47 48 48 48 48 48 47 46
6 6 5 6 7 8 6 7 9 11 12 12 8 5 6 4 3 5 3 3 6 5 13 16 16 20 19 22 30 25 20 18 13 7 21 42 49 47 46 44 43 45 45 45 46 47 49 49 49 50 50 51 51 49 47 47 48 48 47 48 48 47 47
3 4 2 3 6 8 6 9 15 14 14 15 9 4 4 4 5 7 2 4 6 10 16 16 16 17 14 18 28 30 30 32 34 35 17 28 45 44 47 48 44 42 43 45 46 47 49 48 48 49 50 51 52 52 51 49 48 47 47 46 46 46 45
5 6 7 7 8 9 9 13 18 16 13 12 7 3 3 3 7 5 2 3 10 13 15 14 13 15 14 15 19 24 29 31 33 40 36 22 17 17 27 38 46 47 45 45 46 47 49 49 49 50 50 51 52 52 53 52 50 48 47 46 45 44 43
8 9 14 15 12 11 12 14 16 16 14 11 7 4 4 5 7 5 2 7 11 11 11 11 11 13 11 12 16 21 26 29 31 35 37 37 34 24 15 8 21 40 45 47 49 48 48 48 48 49 48 48 51 53 54 54 52 50 49 47 45 44 43
11 11 14 16 13 12 13 13 14 16 16 14 9 8 7 5 5 7 7 11 11 10 10 8 9 11 11 14 18 23 27 29 31 34 35 37 36 30 30 31 15 11 21 32 42 46 48 48 48 48 48 47 48 51 53 53 52 52 49 47 47 45 44
13 13 12 14 15 14 13 14 13 14 16 17 13 11 9 7 9 12 10 10 9 6 4 6 10 13 13 17 21 25 29 30 30 32 32 33 33 32 32 32 26 19 13 6 17 25 32 37 39 41 44 46 47 49 52 51 50 50 48 47 47 47 46
10 13 13 13 14 14 15 15 13 13 16 17 13 10 8 6 9 12 10 8 6 3 2 4 10 14 13 16 20 22 27 29 29 30 31 31 30 30 31 30 27 26 23 16 8 8 12 19 26 29 32 37 42 44 47 48 46 46 46 47 47 47 48
7 9 12 13 13 14 15 15 14 13 14 14 12 9 7 6 8 10 10 6 4 4 6 8 12 14 14 15 18 21 25 28 29 28 29 30 30 30 30 30 28 25 24 20 15 11 6 5 15 23 26 29 35 38 39 39 37 36 38 42 45 47 47
6 8 10 12 12 11 10 10 10 10 10 12 12 10 9 9 8 7 6 4 4 6 8 10 12 13 13 15 18 22 24 26 28 27 27 28 29 29 29 29 29 26 21 17 15 14 12 10 3 12 22 27 32 36 37 37 36 33 30 32 37 42 47
5 7 8 9 8 6 7 5 3 5 6 7 8 8 8 8 6 5 5 6 7 7 7 6 8 9 11 16 21 24 25 25 26 26 27 28 29 29 28 27 27 25 20 15 13 11 7 9 10 3 13 23 30 36 38 38 39 38 34 32 33 36 44
4 5 4 5 5 6 8 6 6 8 7 8 9 8 6 11 11 9 9 9 8 9 10 10 11 10 10 18 25 26 25 27 26 25 27 29 29 29 29 28 26 24 22 18 14 11 9 5 6 7 5 10 19 30 35 35 35 37 37 39 40 39 43
4 3 2 4 4 6 9 8 7 8 6 8 9 6 6 12 12 10 10 9 9 12 14 16 19 17 8 15 24 27 26 27 27 25 26 28 28 28 28 28 27 26 25 22 18 14 11 8 4 2 5 4 4 13 23 28 30 34 37 41 45 44 44
3 4 3 4 6 8 8 5 4 7 6 6 6 3 3 9 11 11 9 9 11 13 15 19 24 21 8 7 16 26 29 28 28 25 24 25 26 27 27 26 26 27 25 23 21 17 13 10 9 7 7 10 7 6 12 21 29 34 36 40 45 46 43
4 4 4 3 6 6 3 1 3 8 11 9 5 2 1 5 12 15 12 9 12 14 14 19 23 17 5 2 10 24 30 29 29 28 26 26 27 29 29 28 28 29 26 24 23 20 18 14 11 11 10 16 17 12 10 16 26 34 37 38 44 46 45
3 5 4 4 5 3 1 3 7 12 13 11 7 3 2 4 11 16 14 12 15 16 16 18 17 10 3 1 9 23 28 26 28 29 27 26 27 30 31 30 31 31 29 27 25 23 22 19 15 14 11 15 21 21 18 17 21 29 37 40 42 46 47
6 6 5 4 3 0 3 6 13 18 17 11 6 3 1 5 11 13 12 12 15 17 18 16 10 5 4 6 14 23 24 22 25 27 26 26 28 31 32 32 32 32 31 29 28 26 25 23 19 17 15 15 21 25 25 24 22 24 33 41 43 44 46
7 8 6 3 2 1 2 7 16 20 15 5 2 2 2 8 12 12 12 11 12 14 16 14 9 8 11 14 19 22 21 21 24 25 25 26 27 29 32 32 32 34 33 31 30 28 26 25 23 20 18 18 21 24 26 29 30 28 29 35 42 44 44
4 5 5 4 3 2 3 9 13 12 6 2 2 5 9 12 13 14 13 12 11 12 13 13 14 16 18 19 20 20 20 21 23 24 26 27 27 29 31 30 32 35 35 33 32 30 28 27 25 23 22 22 23 25 26 30 34 33 30 30 36 42 45
2 2 4 4 3 1 8 12 8 4 2 2 5 10 12 13 14 15 15 14 13 13 14 15 17 20 21 20 20 20 21 20 20 22 25 27 29 30 31 30 31 34 36 35 34 33 32 30 27 25 24 25 25 27 29 30 31 32 32 31 34 40 45
2 2 2 2 3 4 9 9 4 2 5 6 8 12 13 13 15 15 15 15 15 16 17 18 19 21 22 21 20 21 22 22 21 20 21 24 28 30 29 29 30 33 35 35 34 34 33 31 29 26 25 27 28 30 31 30 28 29 31 31 34 41 47
2 4 3 3 6 8 10 7 3 5 8 8 9 12 13 14 15 15 16 17 18 18 19 19 20 21 21 21 21 22 23 23 22 20 19 20 25 28 27 28 29 31 34 35 35 34 33 31 29 27 26 27 30 32 32 29 28 29 29 29 33 43 50
3 6 4 2 6 11 12 7 3 6 9 10 12 14 14 16 17 17 18 19 19 20 20 20 21 21 21 22 22 22 24 24 22 21 20 19 22 25 25 27 29 31 33 34 34 34 33 31 30 28 27 27 29 32 32 30 28 29 29 28 32 43 53
1 3 2 2 8 12 10 5 6 9 11 12 14 15 16 18 19 19 19 20 20 21 21 21 22 22 21 21 23 24 24 24 21 21 21 20 21 22 23 25 28 30 32 33 34 35 34 32 30 30 28 27 27 28 29 29 28 28 30 30 32 42 52
3 5 4 7 14 14 6 4 10 13 13 14 17 18 19 20 20 20 20 20 20 21 21 21 23 23 22 22 23 25 25 23 21 21 21 21 21 22 21 23 26 29 30 32 34 34 33 31 29 29 29 26 25 25 26 27 26 26 29 29 32 42 52
5 6 5 9 13 9 5 7 15 15 15 18 19 19 20 21 20 21 21 20 20 21 22 23 23 24 24 23 23 25 27 25 22 22 22 21 21 22 21 21 24 27 29 30 32 33 31 29 25 24 26 24 23 24 25 23 23 24 26 28 33 43 52
3 3 4 6 5 5 7 13 17 17 18 20 19 19 21 20 20 21 22 22 22 21 22 23 24 25 26 25 25 27 28 27 24 22 22 21 21 22 22 20 22 25 26 26 30 31 30 28 23 21 21 21 21 23 24 24 22 22 22 28 36 45 50
4 6 8 6 5 8 12 15 17 18 19 19 18 19 21 20 21 22 22 23 24 23 23 23 23 25 26 26 27 28 29 28 25 21 21 21 22 22 22 21 22 24 24 24 27 30 31 30 25 20 19 19 18 20 23 25 24 20 19 26 37 44 46
7 10 11 8 7 10 13 15 16 16 16 16 18 20 21 21 22 22 22 24 25 24 25 25 24 25 26 26 27 29 30 29 24 20 20 21 21 22 22 20 22 24 22 23 26 29 32 32 28 23 20 17 15 17 20 23 24 21 19 22 31 40 44
9 11 10 10 11 13 14 15 15 15 15 17 20 21 21 21 22 22 22 24 24 24 25 26 25 24 25 26 27 28 29 28 24 20 20 21 21 23 21 19 20 22 22 22 24 28 32 34 31 26 21 17 14 16 18 22 24 23 21 22 25 32 40
Wind_Direction
343 357 286 198 195 263 324 247 209 213 223 220 210 279 290 282 272 264 233 264 259 212 212 220 207 196 223 246 203 181 186 183 180 182 185 189 191 191 192 194 195 196 196 196 196 196 197 198 198 198 199 201 203 205 206 207 208 207 206 207 209 211 212
351 350 332 233 161 189 241 281 268 232 208 230 194 314 294 295 276 257 256 276 263 210 221 217 216 209 209 229 226 179 176 178 181 184 186 189 191 192 191 193 194 195 196 196 196 198 198 200 200 200 200 202 203 206 207 207 208 208 208 208 209 211 212
344 343 339 355 136 189 206 263 293 346 137 250 322 297 243 265 283 277 274 285 283 237 232 205 210 221 207 209 217 184 172 178 183 184 187 190 191 191 191 192 193 194 196 197 197 197 198 199 200 201 201 202 204 207 208 209 209 210 210 209 210 211 213
340 330 339 360 11 214 313 326 313 53 124 200 248 252 232 157 233 268 284 284 280 265 255 225 225 231 213 205 209 187 173 178 182 184 189 192 191 190 190 191 192 194 196 198 198 198 198 198 200 201 201 202 204 206 208 209 210 210 211 211 212 213 214
339 312 331 354 359 3 355 336 323 343 2 240 245 262 246 189 192 236 270 276 275 265 261 285 308 275 228 209 198 191 180 175 178 184 189 191 190 189 190 190 192 194 196 197 198 199 199 199 200 201 201 202 204 206 208 210 210 210 211 212 213 214 215
337 311 320 329 334 334 324 310 305 308 314 300 279 265 254 229 186 197 208 245 271 264 303 6 3 350 284 215 175 177 191 172 174 182 187 189 188 189 191 191 191 193 195 196 198 198 198 199 200 201 202 203 204 205 207 210 210 211 212 212 213 215 217
307 304 309 311 313 321 319 306 292 284 290 297 276 269 276 262 343 337 200 217 261 267 11 13 5 12 359 286 190 195 214 174 172 179 184 186 187 189 191 191 192 194 195 196 198 198 198 198 199 201 202 204 204 204 207 209 211 212 213 214 214 216 217
303 301 300 297 305 335 329 309 323 329 320 325 327 322 316 270 284 347 80 228 260 283 24 17 12 25 19 360 342 312 289 162 168 179 185 184 184 188 191 190 192 194 194 195 197 198 198 199 200 202 203 204 203 203 205 209 211 213 214 214 215 215 217
319 321 322 316 337 359 337 311 335 345 340 345 2 15 347 322 353 35 74 237 270 340 14 13 15 24 24 11 7 7 12 33 65 131 183 185 185 186 188 189 191 193 193 192 195 197 197 198 199 202 203 204 203 202 203 207 210 212 213 214 215 216 218
305 319 346 354 344 343 325 315 325 333 345 354 5 15 346 324 353 21 85 244 300 348 358 1 11 15 17 18 16 15 20 28 32 30 53 171 184 186 187 189 190 192 192 192 193 195 196 197 199 202 204 204 204 204 204 206 208 210 211 212 214 216 217
268 289 295 299 312 314 310 315 317 319 333 346 354 358 334 320 326 329 159 302 326 342 349 353 3 6 9 18 18 16 18 27 33 33 44 79 120 153 179 188 190 191 191 192 194 195 196 198 200 203 205 206 207 206 207 208 209 210 211 211 213 215 216
267 277 285 291 297 296 296 303 307 308 314 322 329 313 307 331 319 298 10 353 330 330 341 351 2 360 0 9 16 20 18 22 32 36 39 44 53 66 70 95 181 191 191 192 195 197 199 200 201 204 207 209 210 209 209 210 210 211 212 212 213 214 215
288 286 287 291 292 287 287 291 296 305 308 310 311 296 298 326 298 286 335 337 320 329 342 348 354 351 354 360 9 25 25 19 26 35 36 36 42 50 48 45 65 165 187 192 196 197 199 200 202 205 208 210 212 211 210 211 212 213 213 213 213 213 214
296 297 297 295 295 291 285 285 291 302 300 295 292 284 287 298 282 283 309 314 310 335 344 336 346 350 6 12 12 25 29 21 21 30 33 33 32 33 38 44 48 45 47 136 189 196 198 200 202 205 208 209 210 211 211 212 214 215 214 213 214 214 215
292 294 293 288 288 288 284 283 287 292 290 288 285 284 288 290 282 286 297 301 307 314 272 332 2 8 25 29 19 22 29 25 22 25 28 27 25 25 28 32 35 36 40 52 93 163 193 204 205 206 210 212 211 211 211 212 215 216 215 216 216 216 217
277 284 289 289 288 287 283 280 276 273 276 282 284 285 291 290 287 296 305 314 334 337 338 354 4 15 36 40 24 20 25 25 23 23 24 22 18 18 20 22 25 28 30 35 48 66 86 177 206 209 211 212 212 211 211 211 214 215 215 218 219 220 220
275 279 291 301 302 290 272 265 267 269 273 282 284 281 284 291 295 300 309 350 22 17 24 13 352 4 36 44 33 26 22 22 22 21 20 19 15 13 14 14 16 18 17 16 18 27 47 61 107 212 214 210 206 206 207 208 209 211 216 224 226 225 223
273 283 294 305 301 282 270 275 327 334 322 326 318 302 309 332 349 358 8 27 24 18 36 22 343 358 41 49 43 35 26 21 20 18 15 13 9 7 8 8 8 8 5 357 349 346 4 52 61 119 216 218 210 204 204 208 211 215 223 231 233 228 223
269 288 300 291 265 254 270 296 16 11 354 7 350 322 353 21 18 18 23 24 20 12 8 353 336 344 34 52 43 33 28 24 19 15 12 8 4 1 0 0 359 355 349 347 344 330 319 352 57 98 161 214 212 204 205 210 214 219 224 227 228 226 222
265 258 222 240 259 277 280 292 6 13 1 16 358 332 33 38 21 16 14 5 7 10 2 349 337 331 2 57 40 24 21 19 16 15 11 4 359 355 353 354 351 344 338 338 340 334 325 321 314 197 164 176 218 217 218 220 220 222 225 225 223 222 220
225 245 234 245 277 291 283 279 3 354 335 4 8 324 34 37 21 11 3 353 359 6 1 350 340 330 330 66 33 14 10 8 7 10 8 0 353 347 347 347 342 337 334 333 333 332 328 318 307 293 243 222 233 257 244 237 231 228 227 226 223 220 220
205 237 252 259 264 270 267 266 322 319 317 337 1 295 275 35 18 6 1 354 354 359 360 351 342 331 316 116 19 4 2 357 355 357 359 356 348 342 342 341 335 332 333 332 329 328 325 315 301 302 272 225 222 239 250 245 239 233 230 229 225 221 221
212 214 230 242 240 242 328 323 319 320 321 330 337 302 255 19 6 2 4 357 351 355 355 351 348 347 354 67 357 353 352 348 347 349 350 347 342 340 340 339 335 333 331 329 325 321 320 318 310 304 283 231 228 243 248 242 241 238 236 234 229 224 224
225 223 236 242 227 143 16 342 324 320 319 322 314 264 227 353 347 353 0 353 348 350 350 349 356 15 359 324 330 338 339 338 341 344 343 338 337 339 340 337 334 332 330 327 326 321 317 317 315 310 294 256 244 249 247 243 244 243 239 235 230 227 228
223 222 229 241 230 191 3 331 317 314 313 304 232 218 315 320 322 334 344 342 340 344 345 346 343 337 329 321 323 329 332 333 336 337 336 332 332 336 339 336 333 331 329 326 325 323 318 313 309 307 300 279 259 252 249 244 241 240 241 238 233 229 229
231 214 221 243 239 206 304 320 320 323 322 238 233 320 318 307 313 328 332 330 332 334 333 330 323 320 321 322 323 326 328 331 333 332 330 327 327 331 335 334 334 332 329 326 323 319 316 311 307 304 299 285 269 259 253 245 238 237 243 245 240 234 231
266 212 212 227 222 334 337 331 334 6 7 293 309 321 315 310 320 329 328 326 328 326 320 318 316 315 317 320 322 322 323 326 327 327 328 327 325 328 331 333 335 334 330 326 323 320 317 313 307 304 299 287 275 266 257 245 240 241 244 246 245 240 235
335 243 228 261 256 298 327 323 310 334 327 318 321 317 309 313 320 321 321 321 321 320 317 314 312 312 312 315 319 318 319 321 322 322 326 328 324 325 330 334 336 336 331 325 321 319 318 315 309 305 300 290 278 267 256 248 248 249 246 246 247 242 235
267 235 255 319 300 303 318 313 307 337 332 328 332 325 316 316 315 313 314 314 312 313 313 311 309 306 305 308 312 314 313 315 317 317 321 325 321 319 326 335 338 337 333 325 320 319 319 318 312 303 298 293 281 265 256 255 258 255 250 253 252 240 231
258 234 236 318 333 328 331 335 1 0 348 340 338 331 320 315 312 309 309 308 308 309 307 304 303 301 300 302 304 306 307 308 311 312 313 317 315 314 324 335 339 338 333 326 323 322 321 320 315 302 293 290 280 269 262 263 266 261 254 257 255 238 228
313 249 232 14 346 326 326 358 13 353 343 336 328 319 312 309 306 305 304 302 303 303 301 300 299 297 297 298 298 299 301 303 306 308 307 310 311 314 325 335 337 338 335 330 329 329 327 324 316 304 295 287 278 273 270 267 270 267 256 254 253 238 227
279 263 280 347 339 317 298 5 357 341 332 327 320 312 308 305 302 301 301 299 299 299 298 298 297 295 295 295 294 295 295 297 302 305 304 305 308 313 323 332 334 337 339 336 333 332 331 328 319 307 301 292 279 273 270 268 274 271 256 251 251 236 225
270 263 299 347 340 314 287 332 336 330 325 320 315 309 307 305 303 302 300 298 297 296 296 296 295 294 293 292 291 291 291 293 297 300 302 306 308 312 318 324 329 337 343 340 336 334 333 332 325 313 306 298 285 277 272 271 281 279 260 250 246 232 222
268 272 319 344 329 293 297 316 320 320 320 317 312 309 308 305 303 301 300 299 297 292 291 293 292 291 291 291 290 289 289 291 293 295 300 305 306 308 312 316 325 338 345 341 335 336 337 337 334 325 315 306 296 288 280 276 284 284 264 245 234 224 218
262 281 300 303 277 273 287 301 311 316 319 317 312 308 306 302 301 300 298 298 298 294 292 291 289 288 289 289 288 287 287 289 291 293 296 299 299 302 306 310 322 336 345 341 336 339 343 343 343 340 331 322 313 302 290 281 281 279 261 239 226 217 214
270 285 296 294 281 280 287 300 311 315 315 314 310 307 305 301 300 299 296 295 295 295 294 292 288 287 287 286 286 286 286 288 290 292 293 294 296 299 301 306 318 333 346 346 340 341 345 346 348 348 341 333 321 305 288 278 273 267 255 240 226 216 212
275 287 298 297 288 290 296 303 309 311 311 312 311 310 306 303 300 298 296 294 292 292 293 291 288 286 286 285 285 284 285 287 289 289 289 289 290 294 297 301 315 331 347 351 344 341 343 346 350 353 350 338 316 294 278 270 268 263 250 240 230 219 212
Height
1451 1456 1454 1449 1459 1467 1464 1464 1470 1468 1460 1465 1479 1485 1474 1476 1494 1489 1472 1468 1458 1448 1445 1432 1429 1434 1429 1426 1429 1432 1439 1443 1447 1452 1455 1459 1462 1464 1467 1470 1472 1476 1480 1485 1488 1492 1495 1499 1503 1507 1510 1513 1515 1517 1519 1523 1526 1529 1531 1533 1536 1539 1543
1454 1452 1452 1446 1450 1458 1466 1472 1466 1457 1458 1462 1472 1487 1486 1487 1499 1487 1468 1468 1464 1459 1457 1440 1431 1435 1431 1427 1426 1429 1436 1441 1444 1447 1449 1453 1455 1458 1462 1465 1469 1473 1476 1480 1484 1488 1491 1494 1498 1502 1505 1509 1512 1514 1516 1519 1522 1525 1527 1530 1533 1536 1539
1461 1452 1455 1456 1452 1452 1460 1464 1458 1461 1477 1480 1477 1488 1495 1498 1503 1491 1473 1467 1462 1460 1455 1442 1435 1435 1430 1427 1424 1426 1433 1437 1441 1444 1447 1449 1451 1455 1460 1462 1467 1470 1473 1476 1479 1483 1487 1491 1494 1498 1502 1506 1509 1511 1512 1515 1518 1521 1525 1527 1530 1533 1536
1469 1461 1462 1467 1464 1458 1456 1458 1457 1462 1474 1481 1482 1481 1483 1492 1502 1497 1485 1476 1465 1452 1443 1439 1438 1432 1426 1424 1421 1421 1426 1430 1436 1441 1445 1448 1450 1454 1457 1460 1464 1466 1469 1472 1475 1479 1483 1487 1491 1495 1499 1502 1505 1507 1509 1511 1515 1519 1522 1524 1526 1529 1532
1479 1476 1470 1472 1475 1475 1474 1474 1473 1471 1470 1471 1475 1475 1472 1480 1493 1496 1494 1490 1470 1444 1431 1433 1436 1430 1423 1419 1417 1417 1418 1423 1430 1436 1441 1446 1449 1451 1453 1456 1459 1461 1465 1468 1472 1476 1480 1484 1488 1491 1495 1498 1501 1504 1506 1508 1511 1515 1518 1520 1522 1525 1528
1490 1485 1474 1471 1476 1478 1480 1481 1479 1479 1479 1477 1483 1485 1473 1468 1479 1484 1488 1491 1469 1437 1427 1430 1432 1430 1421 1413 1414 1416 1415 1419 1426 1431 1436 1441 1444 1447 1450 1452 1454 1457 1461 1465 1469 1473 1477 1481 1484 1487 1491 1495 1498 1501 1503 1506 1508 1510 1513 1516 1518 1520 1524
1494 1487 1477 1474 1475 1474 1474 1476 1474 1473 1476 1478 1486 1492 1479 1470 1476 1475 1477 1484 1464 1433 1428 1434 1432 1429 1421 1414 1414 1414 1414 1416 1420 1424 1430 1434 1439 1443 1446 1449 1452 1455 1457 1461 1466 1470 1474 1477 1480 1484 1488 1491 1494 1497 1500 1503 1504 1506 1509 1512 1514 1517 1520
1491 1485 1479 1474 1472 1475 1477 1474 1472 1474 1476 1476 1480 1484 1478 1475 1477 1475 1483 1490 1464 1434 1435 1441 1435 1430 1426 1424 1421 1418 1417 1417 1419 1422 1425 1428 1434 1438 1443 1446 1449 1453 1456 1459 1463 1467 1470 1474 1477 1480 1483 1486 1490 1494 1496 1498 1499 1502 1505 1508 1511 1513 1516
1507 1495 1490 1487 1484 1486 1488 1483 1477 1479 1479 1477 1477 1479 1481 1484 1482 1479 1490 1493 1466 1444 1445 1446 1442 1438 1434 1434 1431 1428 1426 1424 1424 1426 1425 1426 1431 1434 1440 1445 1448 1452 1455 1457 1460 1463 1467 1470 1473 1476 1479 1483 1486 1489 1492 1494 1495 1498 1501 1505 1508 1510 1512
1530 1518 1511 1512 1508 1502 1498 1491 1484 1483 1484 1484 1485 1489 1494 1498 1492 1485 1491 1489 1470 1457 1455 1453 1451 1449 1444 1442 1440 1438 1436 1431 1428 1427 1425 1427 1431 1433 1436 1441 1445 1449 1452 1455 1458 1460 1464 1467 1469 1472 1475 1479 1482 1485 1488 1490 1492 1495 1497 1501 1505 1507 1508
1530 1525 1518 1514 1513 1511 1506 1500 1493 1488 1489 1490 1490 1496 1500 1499 1495 1491 1487 1483 1476 1470 1465 1460 1458 1457 1454 1450 1447 1445 1444 1440 1436 1433 1431 1432 1435 1437 1438 1439 1442 1445 1448 1453 1455 1457 1460 1463 1465 1468 1471 1474 1478 1481 1484 1487 1490 1492 1494 1497 1501 1503 1505
1520 1519 1514 1508 1510 1513 1509 1504 1499 1492 1490 1490 1492 1497 1496 1493 1497 1496 1483 1477 1481 1478 1470 1466 1463 1461 1461 1457 1451 1450 1449 1446 1444 1441 1440 1439 1439 1441 1444 1444 1444 1445 1446 1449 1451 1454 1457 1459 1462 1464 1467 1470 1474 1476 1480 1484 1487 1489 1492 1495 1497 1499 1501
1516 1514 1513 1508 1507 1508 1505 1502 1501 1496 1493 1492 1494 1494 1490 1489 1497 1496 1484 1480 1483 1477 1472 1471 1466 1463 1464 1462 1457 1454 1452 1450 1449 1445 1444 1446 1446 1447 1448 1447 1449 1452 1452 1451 1451 1453 1455 1457 1460 1462 1464 1468 1471 1474 1478 1481 1485 1487 1489 1492 1494 1496 1498
1517 1514 1513 1510 1507 1507 1504 1501 1499 1498 1496 1493 1491 1489 1485 1486 1489 1486 1481 1483 1481 1476 1474 1472 1468 1466 1467 1466 1463 1458 1453 1453 1453 1450 1449 1451 1454 1455 1452 1450 1453 1456 1456 1456 1457 1458 1459 1460 1462 1462 1464 1466 1468 1472 1475 1479 1482 1484 1488 1490 1492 1494 1494
1522 1516 1513 1511 1510 1507 1504 1500 1499 1500 1498 1492 1489 1487 1484 1486 1486 1480 1479 1482 1479 1474 1471 1468 1467 1468 1468 1469 1467 1462 1457 1457 1457 1456 1455 1455 1458 1459 1457 1455 1455 1456 1457 1458 1460 1462 1464 1465 1466 1467 1468 1469 1470 1472 1475 1478 1481 1484 1487 1489 1490 1491 1492
1526 1518 1515 1513 1510 1507 1505 1502 1499 1499 1498 1494 1489 1486 1485 1486 1486 1482 1482 1485 1483 1477 1472 1470 1470 1469 1468 1470 1470 1466 1463 1461 1461 1461 1461 1461 1462 1463 1461 1459 1457 1457 1458 1459 1461 1463 1464 1465 1466 1468 1469 1470 1472 1474 1477 1480 1484 1487 1489 1491 1491 1492 1492
1527 1519 1518 1516 1513 1516 1513 1502 1496 1495 1495 1493 1489 1486 1484 1484 1485 1486 1487 1488 1487 1481 1477 1476 1475 1473 1472 1472 1471 1470 1468 1466 1465 1465 1465 1465 1465 1466 1465 1463 1461 1460 1460 1461 1462 1463 1463 1464 1465 1466 1467 1469 1470 1473 1476 1478 1481 1485 1489 1492 1493 1494 1494
1529 1522 1519 1520 1525 1528 1514 1496 1492 1494 1493 1494 1494 1491 1488 1486 1487 1489 1490 1488 1486 1483 1481 1481 1479 1476 1475 1474 1474 1473 1472 1471 1469 1467 1467 1467 1467 1468 1468 1467 1465 1465 1464 1464 1463 1462 1462 1463 1463 1464 1467 1469 1470 1471 1474 1476 1478 1482 1487 1492 1494 1494 1494
1527 1522 1523 1531 1534 1523 1503 1491 1493 1494 1492 1493 1494 1492 1490 1492 1492 1492 1491 1490 1488 1486 1485 1483 1480 1477 1476 1475 1474 1474 1474 1473 1471 1469 1468 1468 1469 1469 1469 1469 1469 1468 1467 1466 1466 1464 1462 1461 1461 1462 1464 1467 1469 1470 1471 1474 1476 1478 1482 1487 1491 1491 1491
1525 1524 1529 1533 1524 1507 1496 1495 1496 1496 1494 1495 1496 1496 1495 1496 1496 1496 1495 1493 1490 1488 1487 1484 1479 1476 1474 1472 1472 1473 1474 1473 1472 1471 1470 1469 1471 1472 1470 1469 1469 1468 1466 1466 1466 1465 1464 1462 1461 1462 1462 1463 1466 1469 1470 1472 1474 1476 1478 1480 1482 1484 1485
1523 1525 1525 1521 1514 1506 1502 1502 1501 1501 1501 1500 1502 1504 1501 1498 1499 1499 1498 1495 1492 1490 1489 1485 1480 1474 1471 1470 1471 1472 1472 1472 1472 1472 1472 1472 1473 1473 1472 1470 1469 1467 1465 1463 1462 1462 1463 1463 1462 1462 1462 1462 1463 1466 1468 1469 1470 1473 1474 1475 1476 1477 1479
1519 1524 1525 1522 1521 1516 1509 1505 1504 1504 1502 1500 1502 1504 1502 1500 1500 1500 1499 1497 1494 1491 1490 1487 1482 1475 1471 1473 1474 1473 1473 1472 1471 1470 1471 1473 1475 1474 1472 1470 1468 1466 1464 1462 1460 1458 1458 1460 1461 1461 1461 1461 1461 1462 1464 1466 1468 1469 1470 1470 1471 1472 1473
1518 1521 1524 1523 1520 1515 1510 1508 1504 1502 1501 1500 1500 1504 1504 1501 1501 1501 1500 1499 1497 1493 1492 1489 1485 1480 1478 1479 1479 1478 1477 1476 1474 1472 1472 1474 1475 1473 1471 1469 1468 1466 1463 1460 1459 1457 1455 1456 1457 1457 1458 1459 1459 1460 1461 1462 1464 1465 1465 1466 1466 1467 1468
1519 1520 1521 1517 1513 1511 1510 1508 1505 1503 1501 1500 1505 1510 1506 1500 1500 1501 1500 1500 1499 1496 1494 1492 1489 1488 1488 1486 1483 1481 1481 1480 1478 1477 1476 1475 1474 1471 1469 1468 1466 1464 1461 1459 1457 1455 1453 1453 1453 1455 1456 1458 1459 1458 1458 1458 1458 1459 1460 1461 1462 1463 1465
1517 1519 1520 1514 1510 1510 1510 1508 1507 1505 1501 1503 1509 1511 1504 1499 1500 1500 1499 1500 1499 1498 1497 1494 1492 1491 1490 1488 1485 1483 1482 1480 1478 1477 1475 1474 1473 1470 1468 1467 1464 1461 1459 1457 1455 1454 1452 1451 1451 1452 1453 1455 1456 1455 1454 1453 1453 1454 1456 1458 1459 1461 1462
1515 1516 1517 1513 1510 1509 1508 1507 1506 1504 1503 1506 1508 1505 1502 1501 1500 1498 1498 1498 1498 1498 1498 1496 1494 1491 1489 1487 1485 1483 1482 1481 1478 1476 1473 1471 1471 1470 1468 1466 1464 1461 1458 1456 1454 1452 1451 1449 1449 1449 1449 1450 1450 1450 1449 1448 1449 1450 1452 1454 1456 1457 1458
1516 1514 1514 1513 1512 1509 1507 1506 1505 1504 1506 1507 1505 1502 1502 1502 1499 1498 1498 1497 1496 1497 1496 1495 1494 1491 1488 1486 1484 1482 1482 1481 1479 1477 1474 1472 1470 1469 1467 1465 1464 1462 1459 1457 1455 1452 1450 1448 1447 1446 1446 1444 1445 1445 1444 1444 1446 1447 1448 1449 1451 1452 1453
1519 1517 1513 1513 1513 1510 1508 1508 1507 1505 1505 1505 1503 1503 1502 1500 1499 1499 1497 1496 1496 1495 1493 1493 1492 1490 1487 1485 1482 1480 1480 1480 1479 1478 1476 1473 1470 1468 1467 1465 1464 1462 1460 1457 1454 1451 1449 1447 1445 1445 1443 1441 1439 1439 1439 1440 1442 1443 1444 1445 1446 1447 1448
1519 1517 1514 1513 1512 1509 1508 1508 1506 1505 1504 1503 1503 1502 1501 1499 1499 1498 1496 1495 1494 1493 1492 1492 1490 1489 1487 1484 1482 1480 1478 1478 1478 1477 1476 1474 1470 1467 1466 1464 1463 1461 1458 1455 1451 1449 1447 1445 1444 1442 1441 1439 1435 1434 1434 1436 1437 1438 1439 1440 1440 1441 1442
1515 1513 1511 1511 1510 1508 1507 1507 1505 1504 1503 1502 1502 1501 1500 1499 1498 1497 1496 1494 1493 1492 1492 1490 1489 1488 1486 1483 1481 1480 1478 1477 1476 1476 1474 1473 1470 1467 1465 1463 1461 1459 1457 1453 1449 1445 1443 1443 1441 1439 1438 1436 1433 1431 1431 1432 1432 1432 1433 1433 1433 1434 1436
1515 1512 1508 1507 1507 1507 1506 1505 1504 1503 1502 1502 1501 1501 1499 1498 1497 1495 1494 1493 1491 1491 1490 1488 1487 1486 1485 1483 1481 1479 1477 1477 1475 1474 1472 1470 1468 1466 1463 1461 1460 1458 1455 1451 1447 1442 1440 1438 1437 1435 1434 1433 1431 1429 1428 1428 1427 1427 1427 1427 1427 1429 1430
1514 1510 1506 1505 1505 1505 1504 1503 1503 1502 1501 1501 1500 1499 1497 1496 1495 1493 1492 1491 1490 1488 1487 1486 1485 1483 1482 1481 1479 1477 1476 1475 1474 1472 1470 1467 1465 1463 1462 1460 1460 1457 1453 1449 1445 1441 1437 1435 1433 1431 1430 1429 1428 1427 1425 1424 1423 1423 1422 1423 1423 1424 1426
1511 1507 1505 1505 1504 1502 1501 1501 1501 1501 1500 1499 1497 1496 1495 1493 1492 1491 1490 1489 1487 1486 1485 1484 1482 1479 1478 1477 1476 1474 1473 1472 1472 1471 1468 1465 1463 1462 1460 1460 1458 1456 1452 1448 1444 1440 1436 1433 1430 1428 1426 1425 1425 1423 1422 1421 1421 1420 1419 1419 1420 1421 1422
1511 1507 1506 1505 1505 1503 1501 1500 1500 1499 1498 1497 1495 1494 1493 1491 1490 1489 1487 1486 1485 1484 1482 1481 1479 1476 1474 1473 1473 1471 1469 1468 1468 1467 1465 1463 1461 1460 1459 1458 1457 1454 1450 1447 1444 1440 1435 1431 1428 1425 1423 1422 1422 1421 1420 1419 1418 1418 1417 1417 1417 1418 1419
1509 1506 1505 1505 1504 1502 1500 1499 1498 1497 1496 1495 1494 1492 1491 1490 1488 1487 1485 1483 1482 1480 1479 1478 1476 1473 1471 1470 1469 1467 1465 1465 1465 1463 1462 1461 1459 1458 1458 1456 1454 1452 1448 1445 1442 1439 1435 1431 1427 1423 1422 1420 1419 1418 1417 1417 1416 1416 1415 1415 1415 1414 1415
1504 1503 1503 1503 1502 1500 1499 1498 1497 1496 1495 1494 1492 1491 1489 1487 1485 1484 1482 1480 1478 1477 1475 1474 1473 1471 1468 1467 1465 1463 1462 1461 1460 1460 1459 1458 1457 1457 1456 1455 1453 1450 1446 1442 1440 1437 1434 1431 1426 1423 1420 1418 1416 1415 1414 1413 1413 1413 1413 1413 1413 1412 1412
1502 1502 1501 1500 1499 1498 1497 1496 1495 1494 1493 1492 1490 1488 1486 1484 1482 1481 1479 1477 1475 1474 1472 1470 1469 1468 1466 1464 1462 1461 1459 1457 1457 1457 1456 1455 1455 1455 1455 1454 1453 1449 1444 1440 1438 1436 1434 1431 1426 1422 1419 1416 1414 1412 1411 1410 1410 1410 1410 1411 1411 1411 1410